SM4TUV Weather Reports


Display with metric or nautical units.
time (UTC)temp
F
wind
direction
speed
MPH
gust
MPH
rain 1hr
in
rain 24hr
in
rain mn
in
humidity
%
barometer
mb
20260906191530 56 124 1.0 2.0 0.00 0.00 0.00 70 982.7
20260906190630 56 189 2.0 2.0 0.00 0.00 0.00 70 982.9
20260906185730 56 207 2.0 3.0 0.00 0.00 0.00 70 982.8
20260906184830 56 203 2.0 3.0 0.00 0.00 0.00 71 982.8
20260906183030 56 181 4.0 4.0 0.00 0.00 0.00 73 982.9
20260906181230 57 190 3.0 4.0 0.00 0.00 0.00 68 982.9
20260906180330 59 235 4.0 7.0 0.00 0.00 0.00 61 982.7
20260906175430 60 185 2.0 2.0 0.00 0.00 0.00 57 982.6
20260906172730 61 181 2.0 3.0 0.00 0.00 0.00 55 982.4
20260906171830 62 182 3.0 3.0 0.00 0.00 0.00 55 982.5
20260906170931 61 181 2.0 2.0 0.00 0.00 0.00 56 982.4
20260906170030 63 181 2.0 2.0 0.00 0.00 0.00 53 982.3
20260906164230 68 210 2.0 3.0 0.00 0.00 0.00 46 982.4
20260906163330 70 237 1.0 3.0 0.00 0.00 0.00 45 982.4
20260906162430 69 257 2.0 3.0 0.00 0.00 0.00 45 982.4
20260906161530 69 350 2.0 4.0 0.00 0.00 0.00 48 982.3
20260906160630 69 308 2.0 4.0 0.00 0.00 0.00 47 982.3
20260906155730 69 221 2.0 3.0 0.00 0.00 0.00 45 982.2
20260906154830 66 296 4.0 8.0 0.00 0.00 0.00 50 982.2
20260906153030 64 342 6.0 8.0 0.00 0.00 0.00 50 982.3
20260906152130 65 326 6.0 8.0 0.00 0.00 0.00 48 982.3
20260906151230 67 309 4.0 8.0 0.00 0.00 0.00 45 982.3
20260906150330 66 303 4.0 7.0 0.00 0.00 0.00 47 982.4
20260906145431 66 318 4.0 8.0 0.00 0.00 0.00 46 982.2
20260906144530 67 302 5.0 8.0 0.00 0.00 0.00 45 982.2
20260906143630 68 277 5.0 8.0 0.00 0.00 0.00 44 982.3
20260906142730 66 314 6.0 8.0 0.00 0.00 0.00 47 982.3
20260906140930 65 314 3.0 5.0 0.00 0.00 0.00 50 982.2
20260906140030 64 316 4.0 6.0 0.00 0.00 0.00 51 982.2
20260906135130 64 327 3.0 4.0 0.00 0.00 0.00 50 982.2
20260906134231 64 313 3.0 6.0 0.00 0.00 0.00 50 982.3
20260906133330 64 321 5.0 8.0 0.00 0.00 0.00 49 982.2
20260906132431 64 326 5.0 10.0 0.00 0.00 0.00 49 982.2
20260906131530 64 310 5.0 8.0 0.00 0.00 0.00 48 982.1
20260906130630 64 292 5.0 9.0 0.00 0.00 0.00 48 982.1
20260906125730 64 306 6.0 9.0 0.00 0.00 0.00 48 982.0
20260906124830 64 328 7.0 11.0 0.00 0.00 0.00 49 982.0
20260906123930 65 319 6.0 8.0 0.00 0.00 0.00 46 982.0
20260906123030 66 312 8.0 11.0 0.00 0.00 0.00 44 982.0
20260906122130 68 337 3.0 4.0 0.00 0.00 0.00 46 982.1
20260906121230 64 13 3.0 4.0 0.00 0.00 0.00 51 982.0
20260906115430 64 322 6.0 11.0 0.00 0.00 0.00 50 981.7
20260906114530 65 337 8.0 11.0 0.00 0.02 0.00 46 981.7
20260906112730 67 249 3.0 4.0 0.00 0.02 0.00 49 981.4
20260906111830 66 173 3.0 6.0 0.00 0.02 0.00 53 981.3
20260906110930 64 175 3.0 4.0 0.00 0.02 0.00 54 981.3
20260906110030 63 197 5.0 7.0 0.00 0.02 0.00 54 981.4
20260906105130 64 249 3.0 5.0 0.00 0.02 0.00 54 981.5
20260906104230 64 241 3.0 4.0 0.00 0.02 0.00 54 981.6
20260906103330 64 203 3.0 4.0 0.00 0.02 0.00 54 981.6
20260906102431 64 219 3.0 4.0 0.00 0.02 0.00 54 981.5
20260906101530 64 251 4.0 8.0 0.00 0.02 0.00 55 981.5
20260906100630 64 213 5.0 8.0 0.00 0.02 0.00 57 981.4
20260906095730 64 187 5.0 8.0 0.00 0.02 0.00 55 981.5
20260906094830 63 205 5.0 7.0 0.00 0.02 0.00 58 981.5
20260906092130 62 233 5.0 8.0 0.00 0.02 0.00 60 981.3
20260906085431 62 253 4.0 7.0 0.00 0.02 0.00 60 981.2
20260906084530 62 235 4.0 6.0 0.00 0.02 0.00 60 981.1
20260906083630 61 279 4.0 7.0 0.00 0.02 0.00 62 981.1
20260906082730 60 233 5.0 7.0 0.00 0.02 0.00 63 981.1
20260906081830 60 260 4.0 6.0 0.00 0.02 0.00 64 981.0
20260906080931 60 270 5.0 5.0 0.00 0.02 0.00 65 981.1
20260906074230 59 203 3.0 5.0 0.00 0.02 0.00 67 980.9
20260906073330 58 218 4.0 5.0 0.00 0.02 0.00 68 980.7
20260906071530 56 239 5.0 6.0 0.00 0.02 0.00 69 980.6
20260906070631 56 276 5.0 6.0 0.00 0.02 0.00 69 980.5
20260906065730 56 230 4.0 6.0 0.00 0.02 0.00 69 980.4
20260906064830 55 221 4.0 6.0 0.00 0.02 0.00 69 980.3
20260906063931 55 236 4.0 4.0 0.00 0.02 0.00 71 980.3
20260906063030 55 193 3.0 4.0 0.00 0.02 0.00 71 980.0
20260906062130 53 198 4.0 5.0 0.00 0.02 0.00 72 980.1
20260906061230 52 192 5.0 6.0 0.00 0.02 0.00 75 980.2
20260906060330 51 207 5.0 7.0 0.00 0.02 0.00 75 980.1
20260906055431 51 197 4.0 4.0 0.00 0.02 0.00 76 980.1
20260906054530 51 215 4.0 5.0 0.00 0.02 0.00 76 980.0
20260906051830 48 198 5.0 7.0 0.00 0.02 0.00 80 979.7
20260906050930 48 160 4.0 4.0 0.00 0.02 0.00 83 979.8
20260906050030 47 195 4.0 6.0 0.00 0.02 0.00 85 979.7
20260906045130 45 177 3.0 4.0 0.00 0.02 0.00 90 979.5
20260906044230 44 191 3.0 4.0 0.00 0.02 0.00 90 979.3
20260906042431 44 197 4.0 6.0 0.00 0.02 0.00 89 979.3
20260906041530 44 204 3.0 3.0 0.00 0.02 0.00 88 979.1
20260906040630 45 203 3.0 4.0 0.00 0.02 0.00 85 979.0
20260906034830 46 92 3.0 4.0 0.00 0.02 0.00 85 978.8
20260906033931 46 90 3.0 4.0 0.00 0.02 0.00 86 978.6
20260906033030 46 103 3.0 4.0 0.00 0.02 0.00 87 978.5
20260906032130 45 146 2.0 3.0 0.00 0.02 0.00 89 978.6
20260906031230 45 203 2.0 2.0 0.00 0.02 0.00 90 978.4
20260906025430 45 202 1.0 2.0 0.00 0.02 0.00 89 978.3
20260906024530 45 216 1.0 2.0 0.00 0.02 0.00 90 978.0
20260906021830 45 197 3.0 3.0 0.00 0.02 0.00 89 977.8
20260906020930 45 186 2.0 3.0 0.00 0.02 0.00 89 977.7
20260906020030 45 177 3.0 3.0 0.00 0.02 0.00 88 977.7
20260906015130 45 213 2.0 3.0 0.00 0.02 0.00 87 977.4
20260906014230 46 206 3.0 4.0 0.00 0.02 0.00 84 977.4
20260906013330 47 135 2.0 3.0 0.00 0.02 0.00 83 977.2
20260906012430 47 117 3.0 4.0 0.00 0.02 0.00 84 977.0
20260906011530 46 142 2.0 4.0 0.00 0.02 0.00 86 977.0
20260906010630 46 24 1.0 2.0 0.00 0.02 0.00 85 976.8
20260906005730 46 101 2.0 3.0 0.00 0.02 0.00 85 977.0
20260906004830 46 117 2.0 3.0 0.00 0.02 0.00 86 976.6
20260906003931 46 99 3.0 4.0 0.00 0.02 0.00 86 976.5
20260906003030 46 89 2.0 3.0 0.00 0.02 0.00 85 976.5
20260906002130 46 117 2.0 3.0 0.00 0.02 0.00 85 976.3
20260906001230 46 110 2.0 3.0 0.00 0.02 0.00 84 976.1
20260906000330 46 98 2.0 4.0 0.00 0.02 0.00 84 976.1
20260905233630 47 90 4.0 5.0 0.00 0.02 0.00 84 975.9
20260905231830 47 97 4.0 5.0 0.00 0.02 0.00 85 975.8
20260905230930 47 58 4.0 5.0 0.00 0.02 0.00 85 975.7
20260905225130 47 92 4.0 5.0 0.00 0.02 0.00 85 975.6
20260905224230 47 87 4.0 4.0 0.00 0.02 0.00 84 975.4
20260905223330 47 100 4.0 4.0 0.00 0.02 0.00 84 975.5
20260905222431 47 103 4.0 5.0 0.00 0.02 0.00 84 975.3
20260905221530 47 92 3.0 4.0 0.00 0.02 0.00 84 975.2
20260905220630 48 90 4.0 5.0 0.00 0.02 0.00 84 974.9
20260905215730 48 97 3.0 4.0 0.00 0.02 0.02 84 974.9
20260905213930 48 84 3.0 4.0 0.00 0.02 0.02 83 974.7
20260905212130 49 94 3.0 4.0 0.00 0.02 0.02 83 974.4
20260905211231 49 90 2.0 2.0 0.00 0.02 0.02 82 974.3
20260905210330 50 92 2.0 3.0 0.00 0.02 0.02 82 974.1
20260905205430 50 91 3.0 4.0 0.00 0.02 0.02 82 974.0
20260905204530 51 98 3.0 4.0 0.00 0.02 0.02 82 973.9
20260905203630 51 93 2.0 3.0 0.00 0.02 0.02 82 973.9
20260905202730 50 83 2.0 3.0 0.00 0.02 0.02 81 973.9
20260905201830 51 71 2.0 4.0 0.00 0.02 0.02 81 973.6
20260905195130 52 97 2.0 4.0 0.00 0.02 0.02 80 973.3
20260905194230 52 98 2.0 3.0 0.00 0.02 0.02 79 973.2
20260905193330 52 127 3.0 3.0 0.00 0.02 0.02 78 973.2
20260905192430 52 112 2.0 2.0 0.00 0.02 0.02 78 972.9